PEGASUS DEB, 24340

Orbit data source: Space-Track

PEGASUS DEB, 24340 is space debris in LEO originally from a launch on Thu, 19 May 1994 UTC launched from the Air Force Western Test Range (AFWTR). Debris objects in space refer to the collection of defunct objects orbiting the Earth. Examples of debris include non-operational satellites, rocket bodies, and fragments generated from explosions, collisions, or faulty payload assembly.

Loading next visibility...
Identifier
24340, 1994-029NR
Orbit
LEO
Country
Flag of USUS
Related business
Manufacturer
Unknown
Mission
Spacecraft
Bus & Motor
Unknown
Mass
Unknown
Launch date (UTC)
1994-05-19 (32 years ago)
Launch vehicle
Unknown
Launch site
Air Force Western Test Range (AFWTR)
Object type
Payload
Rocket body
Debris
Shape & HBR
Unknown shape, 0.1 m
Radar Cross Section
Medium (>0.1 m² and <1 m²)

Expand to show TLE details & history
Last TLE update: 19 hours ago

TLE from 19 hours ago
0 PEGASUS DEB
1 24340U 94029NR  26207.47541145  .00001905  00000-0  78815-3 0  9992
2 24340  81.5934 268.9802 0829399  29.5915 334.9584 13.16546059530702
Epoch: 2026-07-26T11:24Z
TLE epoch observation values (Epoch: 2026-07-26T11:24:35.549Z)
Latitude
-0.00001°
Longitude
153.65927°
Altitude
641.821 km
Speed
7.81 km/s
True Right ascension
17h 55m 55s
True Declination
0° 00' 00"
Sunlit
Object was in full shadow at epoch
Visualization orbit readout
Latitude
Unknown
Longitude
Unknown
Altitude
Unknown
Speed
Unknown
Apparent Right ascension
Unknown
Apparent Declination
Unknown
Sunlit
N/A
Visualization observer readout
Local Sidereal Time
19:54:41
Azimuth
Unknown
Elevation
Unknown
Doppler factor
Unknown
Orbital elements
Apogee altitude
1,823.33 km
Perigee altitude
567.067 km
Semi-major axis
7,573.335 km
Eccentricity
0.08294
Inclination
81.5934°
RAAN
268.9802°
Arg. of periapsis
29.5915°
True anomaly
330.52488°
Mean anomaly
334.9584°
Eccentric anomaly
332.78512°
Mean motion
3.29316 °/min
Orbital period
109.32 mins
BSTAR
0.00078815
Loading maneuver chart data...
Computing Atmospheric mass density...
Loading historical data...
Loading historical data...
Loading historical data...
Loading historical data...
Loading historical data...
Loading historical data...
Loading historical data...

Documentation

Showing up to 5 results
|